Regional Weather Roundup
Issued by NWS Midland/Odessa, TX

Home | Current Version | Previous Version | Text Only | Print | Product List | Glossary On
Versions: 1 2 3 4 5 6 7 8 9 10 11 12 13 14 15 16 17 18 19 20 21 22 23 24 25 26 27 28 29 30 31 32 33 34 35 36 37 38 39 40 41 42 43 44 45 46 47 48 49 50
000
ASUS44 KMAF 202310
RWRMAF
MIDLAND AREA WEATHER ROUNDUP
NATIONAL WEATHER SERVICE MIDLAND TX
500 PM CST TUE FEB 20 2018

...IN SOUTHWEST TEXAS AND SOUTHEAST NEW MEXICO...

CITY           SKY/WX    TMP DP  RH WIND       PRES   REMARKS
ALPINE         FAIR      72  21  14 SW13      29.97R
ANDREWS        FAIR      71  27  19 SW9G20    29.90R
ARTESIA        FAIR      68  28  22 SW17G30   29.89R
BIG SPRING     FAIR      75  30  19 NW10      29.90R
CARLSBAD       FAIR      69  28  21 W15G24    29.87R
DRYDEN           N/A     84  30  14 SW10      29.80R
FORT STOCKTON  FAIR      77  22  13 SW10      29.85R
GUAD PASS      FAIR      60  29  30 SW23G36   29.94R
HOBBS          SUNNY     68  27  21 W12G18    29.89R
LAMESA         FAIR      72  27  18 S10G16    29.90R
MARFA          NOT AVBL
MIDLAND AIRPK    N/A     76  26  15 W7        29.89R
MIDLAND INTL   FAIR      75  26  16 SW9       29.88R
ODESSA         FAIR      74  25  16 W13       29.88R
PECOS          FAIR      77  26  15 W13       29.84S
PRESIDIO       FAIR      80  24  13 SW10      29.86S
SEMINOLE       FAIR      70  26  19 SW12G20   29.90R
SNYDER         FAIR      53  31  42 NE21G30   29.95R
WINK           FAIR      75  26  16 NW7       29.85R
$$
...OTHER STATIONS IN TEXAS...

CITY           SKY/WX    TMP DP  RH WIND       PRES   REMARKS
ABILENE        LGT RAIN  34  34 100 N16       30.00R WCI  24
AMARILLO       FAIR      39  12  33 NE16G22   30.02R WCI  30
AUSTIN         LGT RAIN  72  72 100 SE14G25   29.85F FOG
BROWNSVILLE    FAIR      79  72  79 SE22G36   29.88R
CORPUS CHRISTI LGT RAIN  72  72 100 S16       29.88S
DALLAS FTW     HVY RAIN  49  47  93 N25       29.91R VSB 1
DEL RIO        FAIR      84  60  44 E12       29.78S
EL PASO        FAIR      62  36  37 W12G22    29.91R
HOUSTON INT    PTSUNNY   78  69  73 S15G28    29.96S
LUBBOCK        FAIR      56  27  32 NE17      29.94R
SAN ANGELO     PTSUNNY   82  50  32 SW15      29.81S
SAN ANTONIO    CLOUDY    73  68  84 S9        29.87R
WACO           CLOUDY    71  66  84 S15       29.88R
WICHITA FALLS  PTSUNNY   25  19  78 N17       30.17R WCI  12
$$
...OTHER LOCATIONS IN NEW MEXICO...

CITY           SKY/WX    TMP DP  RH WIND       PRES   REMARKS
ALAMOGORDO     PTSUNNY   55  32  41 W6        29.96R
ALBUQUERQUE    PTSUNNY   41  18  39 W9        29.97R WCI  35
CANNON AFB     FAIR      60  26  28 CALM      29.91R
CLOVIS         NOT AVBL
HOLLOMAN AFB   FAIR      58  33  40 SW7       29.97R
ROSWELL        FAIR      68  23  18 W18       29.85R
RUIDOSO        NOT AVBL
SANTA FE       CLOUDY    35  14  42 SW15      29.95R WCI  25
TRUTH OR CONSE PTSUNNY   54  25  32 SW20G28   29.91
TUCUMCARI      PTSUNNY   53  21  28 E3        29.90R
$$



USA.gov is the U.S. government's official web portal to all federal, state and local government web resources and services.